[[{"header":{"parameterUnit":"m.s-1","parameterCategory":1,"la1":30.2991,"la2":30.254,"lo1":-89.0895,"lo2":-89.0444,"dy":0.0017,"dx":0.0017,"nx":28,"ny":28,"refTime":"2025-12-06T03:00:00:Z","depth":0,"parameterNumber":2,"parameterNumberName":"U-component_of_WINDS"},"data":[0,0,0,0,0,0,0,0,0,0,0,0,0,0,0,0,0,0,0,0,0,0,0,0,0,0,0,0,0,0,0,0,0,0,0,0,0,0,0,0,0,0,0,0,0,0,0,0,0,0,0,0,0,0,0,0,0,0,-2.2395,-2.2395,0,-2.2431,-2.2432,-2.2432,-2.241,-2.2409,-2.2408,-2.2407,-2.2445,-2.2447,-2.2449,0,0,0,0,0,0,0,0,0,0,0,0,0,-2.2306,-2.2308,-2.2395,-2.2395,-2.2396,-2.2431,-2.2432,-2.2432,-2.241,-2.2409,-2.2407,-2.2406,-2.2445,-2.2447,-2.245,0,0,0,0,0,0,0,0,0,0,0,0,0,-2.2344,-2.2309,-2.2395,-2.2389,-2.2389,-2.2431,-2.2432,-2.2433,-2.241,-2.2409,-2.2407,-2.2406,-2.2444,-2.2447,-2.245,-2.2501,0,0,-2.2459,-2.2461,0,0,0,0,0,0,0,0,-2.2342,-2.2347,-2.2389,-2.2389,-2.2389,-2.2414,-2.2415,-2.2455,-2.2411,-2.2402,-2.2407,-2.2405,-2.2436,-2.244,-2.245,-2.2503,-2.2504,-2.246,-2.2461,-2.2463,-2.2464,0,0,0,0,0,0,0,-2.2339,-2.2346,-2.2409,-2.239,-2.239,-2.2385,-2.2388,-2.2423,-2.2428,-2.2403,-2.2401,-2.2406,-2.2436,-2.2448,-2.2451,-2.2505,-2.2459,-2.2462,-2.2464,-2.2465,-2.2601,-2.2602,0,0,0,0,0,0,-2.2337,-2.2344,-2.2408,-2.241,-2.2361,-2.2388,-2.2392,-2.2408,-2.2427,-2.2429,-2.2407,-2.2405,-2.2443,-2.2448,-2.2453,-2.2513,-2.2463,-2.2466,-2.2467,-2.2599,-2.2601,-2.2603,0,0,0,0,0,0,-2.2335,-2.2343,-2.2407,-2.2377,-2.2384,-2.2391,-2.2409,-2.2409,-2.2421,-2.2431,-2.2432,-2.2418,-2.2442,-2.2448,-2.2489,-2.2514,-2.2467,-2.247,-2.2597,-2.26,-2.2602,-2.2634,0,0,0,0,0,0,-2.2333,-2.2343,-2.2362,-2.2377,-2.2386,-2.2442,-2.2411,-2.2411,-2.2426,-2.2423,-2.2441,-2.2442,-2.2441,-2.2484,-2.2492,-2.2517,-2.2472,-2.2595,-2.2598,-2.2601,-2.2631,-2.2638,-2.2644,0,0,0,0,0,-2.233,-2.237,-2.2363,-2.2371,-2.241,-2.2443,-2.2449,-2.2446,-2.2428,-2.2447,-2.2454,-2.2442,-2.251,-2.2489,-2.2497,-2.2524,-2.2593,-2.2597,-2.2601,-2.2628,-2.2637,-2.2644,0,0,0,0,0,0,-2.2357,-2.2372,-2.2364,-2.241,-2.2426,-2.244,-2.2464,-2.2455,-2.2476,-2.2473,-2.247,-2.2474,-2.2516,-2.2524,-2.25,-2.2574,-2.2549,-2.2555,-2.2567,-2.2575,-2.2581,-2.2578,-2.2475,0,0,0,0,0,-2.2369,-2.2394,-2.2406,-2.2445,-2.2453,-2.2457,-2.2472,-2.2469,-2.2485,-2.2492,-2.2501,-2.2518,-2.2543,-2.2559,-2.2583,-2.2633,-2.2636,-2.2655,-2.2661,-2.2667,-2.2671,-2.2698,-2.2706,-2.2616,-2.2616,-2.2616,0,0,-2.2392,-2.2403,-2.242,-2.2451,-2.2463,-2.249,-2.2463,-2.2493,-2.2513,-2.2496,-2.2535,-2.2543,-2.2561,-2.2606,-2.2626,-2.2614,-2.2697,-2.2672,-2.2676,-2.2678,-2.2703,-2.2711,-2.2719,-2.2619,-2.2618,-2.2618,0,0,-2.2449,-2.246,-2.2494,-2.2506,-2.2524,-2.2527,-2.2535,-2.2551,-2.2555,-2.2594,-2.2582,-2.2606,-2.2649,-2.2663,-2.2675,-2.2738,-2.2727,-2.2746,-2.2778,-2.2804,-2.2811,-2.2817,-2.2839,-2.2847,-2.2751,-2.2751,-2.2751,0,-2.2476,-2.2516,-2.2513,-2.2543,-2.2557,-2.2543,-2.2578,-2.259,-2.2615,-2.2625,-2.2611,-2.2665,-2.2677,-2.2725,-2.274,-2.2751,-2.276,-2.2743,-2.281,-2.2816,-2.2822,-2.2843,-2.2851,-2.2753,-2.2753,-2.2752,-2.2752,0,-2.2548,-2.2576,-2.2601,-2.2625,-2.2642,-2.2675,-2.2677,-2.2694,-2.269,-2.2694,-2.2734,-2.2747,-2.2773,-2.2785,-2.2781,-2.2832,-2.2824,-2.281,-2.2785,-2.2833,-2.2852,-2.286,-2.2756,-2.2755,-2.2754,-2.2754,0,0,-2.2622,-2.2644,-2.2653,-2.2664,-2.2683,-2.2705,-2.2737,-2.2762,-2.2777,-2.2795,-2.2822,-2.2859,-2.2847,-2.2861,-2.2859,-2.2882,-2.293,-2.2865,-2.2865,-2.2876,-2.2986,-2.2996,-2.3005,-2.2923,-2.2925,-2.2926,-2.2984,0,-2.2679,-2.2734,-2.2733,-2.2784,-2.2809,-2.2797,-2.2825,-2.284,-2.2845,-2.2868,-2.2874,-2.29,-2.2881,-2.289,-2.2912,-2.2919,-2.2951,-2.2915,-2.2948,-2.2949,-2.2942,-2.3015,-2.3025,-2.308,-2.2992,-2.2993,-2.2994,0,-2.2753,-2.2773,-2.2827,-2.2842,-2.2853,-2.2878,-2.29,-2.2923,-2.294,-2.2942,-2.2958,-2.2952,-2.2985,-2.2959,-2.3004,-2.2979,-2.2993,-2.2999,-2.3001,-2.3003,-2.2974,-2.3018,-2.3097,-2.3105,-2.3006,-2.3005,-2.3004,0,-2.28,-2.2841,-2.2878,-2.2888,-2.2907,-2.2925,-2.2934,-2.2949,-2.2964,-2.2985,-2.2995,-2.3019,-2.3032,-2.3051,-2.3052,-2.3034,-2.3098,-2.3072,-2.31,-2.31,-2.3113,-2.3112,-2.3194,-2.3124,-2.3124,-2.3124,-2.3123,0,-2.2864,-2.2897,-2.29,-2.2923,-2.296,-2.2958,-2.2995,-2.3002,-2.3016,-2.304,-2.3032,-2.3055,-2.3055,-2.3079,-2.3081,-2.3117,-2.3124,-2.3126,-2.3126,-2.3126,-2.3126,-2.3134,-2.313,-2.3126,-2.3125,-2.3125,-2.3124,0,-2.2922,-2.2926,-2.2965,-2.298,-2.2985,-2.3011,-2.3024,-2.3046,-2.3051,-2.3082,-2.3089,-2.3096,-2.3123,-2.3127,-2.3159,-2.316,-2.3204,-2.3201,-2.3198,-2.3197,-2.3225,-2.3222,-2.3314,-2.3326,-2.3249,-2.325,-2.325,0,-2.2962,-2.2987,-2.3005,-2.302,-2.303,-2.3055,-2.307,-2.307,-2.3087,-2.3108,-2.3127,-2.3154,-2.3175,-2.322,-2.3228,-2.3253,-2.3249,-2.328,-2.3253,-2.3252,-2.3249,-2.3247,-2.3249,-2.3285,-2.3286,-2.3286,-2.3287,0,-2.3032,-2.3032,-2.3054,-2.3077,-2.3096,-2.3114,-2.3131,-2.3145,-2.3147,-2.3166,-2.3194,-2.321,-2.3243,-2.3269,-2.3294,-2.3304,-2.3296,-2.3296,-2.3303,-2.3303,-2.33,-2.3302,-2.3211,-2.3293,-2.3293,-2.3292,-2.3292,-2.3292,-2.3081,-2.3103,-2.3118,-2.3144,-2.3157,-2.3173,-2.3194,-2.3201,-2.3224,-2.325,-2.3249,-2.328,-2.3297,-2.3329,-2.334,-2.3364,-2.3354,-2.3366,-2.3368,-2.3371,-2.3373,-2.3298,-2.3369,-2.3369,-2.3369,-2.3369,-2.3369,0,-2.315,-2.3159,-2.3182,-2.3206,-2.3226,-2.3217,-2.3236,-2.3253,-2.328,-2.3296,-2.3317,-2.3349,-2.3375,-2.3386,-2.3411,-2.3429,-2.3426,-2.3435,-2.3433,-2.3436,-2.3381,-2.3371,-2.3437,-2.3437,-2.3437,-2.3437,-2.3437,-2.3437,-2.3187,-2.3223,-2.3226,-2.3268,-2.3278,-2.3307,-2.3318,-2.3333,-2.3346,-2.3382,-2.3403,-2.341,-2.3424,-2.3451,-2.3474,-2.3477,-2.3486,-2.3497,-2.3498,-2.3446,-2.3439,-2.3433,-2.3424,-2.3499,-2.3499,-2.355,-2.3551,-2.3551]},{"header":{"parameterUnit":"m.s-1","parameterCategory":1,"la1":30.2991,"la2":30.254,"lo1":-89.0895,"lo2":-89.0444,"dy":0.0017,"dx":0.0017,"nx":28,"ny":28,"refTime":"2025-12-06T03:00:00:Z","depth":0,"parameterNumber":3,"parameterNumberName":"V-component_of_WINDS"},"data":[0,0,0,0,0,0,0,0,0,0,0,0,0,0,0,0,0,0,0,0,0,0,0,0,0,0,0,0,0,0,0,0,0,0,0,0,0,0,0,0,0,0,0,0,0,0,0,0,0,0,0,0,0,0,0,0,0,0,0.1329,0.1328,0,0.124,0.1239,0.1238,0.1215,0.1215,0.1216,0.1216,0.1122,0.1119,0.1116,0,0,0,0,0,0,0,0,0,0,0,0,0,0.1475,0.1472,0.1329,0.1328,0.1327,0.1241,0.1239,0.1238,0.1215,0.1215,0.1216,0.1217,0.1123,0.112,0.1116,0,0,0,0,0,0,0,0,0,0,0,0,0,0.1401,0.1471,0.1329,0.1305,0.1302,0.1241,0.1239,0.1238,0.1214,0.1215,0.1216,0.1217,0.1124,0.112,0.1116,0.1072,0,0,0.1102,0.11,0,0,0,0,0,0,0,0,0.1405,0.1396,0.1309,0.1306,0.1303,0.1239,0.1256,0.1182,0.1214,0.1247,0.1216,0.1217,0.116,0.1153,0.1134,0.1067,0.1063,0.1101,0.1099,0.1097,0.1095,0,0,0,0,0,0,0,0.1411,0.14,0.1294,0.1308,0.1304,0.1297,0.1288,0.1242,0.12,0.1245,0.1243,0.1233,0.1159,0.1139,0.1132,0.1062,0.1102,0.1098,0.1095,0.1093,0.0954,0.0953,0,0,0,0,0,0,0.142,0.1404,0.1296,0.1291,0.1357,0.1294,0.1283,0.1259,0.1201,0.1193,0.1232,0.1232,0.1146,0.1137,0.1129,0.1074,0.1097,0.1093,0.109,0.0955,0.0954,0.0953,0,0,0,0,0,0,0.1423,0.1411,0.13,0.1347,0.1332,0.1291,0.1263,0.1257,0.1237,0.1191,0.1184,0.122,0.1146,0.1135,0.1086,0.107,0.1091,0.1086,0.0957,0.0955,0.0954,0.0963,0,0,0,0,0,0,0.1428,0.1412,0.1396,0.1347,0.133,0.126,0.1262,0.1254,0.123,0.1229,0.1178,0.117,0.1146,0.1093,0.1082,0.1064,0.1083,0.0958,0.0956,0.0954,0.0964,0.0962,0.0961,0,0,0,0,0,0.1433,0.1401,0.1395,0.1382,0.1309,0.1259,0.1249,0.1224,0.1228,0.1211,0.1182,0.1172,0.1074,0.1088,0.1075,0.1056,0.0959,0.0956,0.0954,0.0965,0.0963,0.0961,0,0,0,0,0,0,0.1448,0.1394,0.1387,0.1338,0.1304,0.1255,0.1233,0.1222,0.1184,0.1185,0.1153,0.1142,0.1096,0.1071,0.1088,0.1011,0.1016,0.1011,0.1029,0.1026,0.1024,0.1031,0.1079,0,0,0,0,0,0.1446,0.1411,0.1366,0.1327,0.131,0.1275,0.1252,0.1235,0.1198,0.1183,0.115,0.1113,0.1074,0.1048,0.101,0.0961,0.0949,0.0941,0.0939,0.0938,0.0934,0.0906,0.0902,0.0946,0.0946,0.0946,0,0,0.144,0.1407,0.1387,0.1329,0.13,0.1265,0.1262,0.1224,0.1197,0.1176,0.1129,0.1104,0.106,0.1011,0.0988,0.0989,0.0919,0.0935,0.0935,0.0931,0.0903,0.0899,0.0896,0.0944,0.0945,0.0945,0,0,0.1412,0.1384,0.1349,0.132,0.1277,0.1254,0.1246,0.1199,0.1182,0.1134,0.1118,0.1084,0.1018,0.0988,0.0963,0.0925,0.0914,0.0913,0.0904,0.0877,0.0874,0.087,0.0856,0.0852,0.091,0.091,0.091,0,0.1411,0.1357,0.1332,0.1295,0.127,0.1251,0.1215,0.1188,0.1134,0.1117,0.112,0.1036,0.1006,0.0949,0.094,0.0921,0.091,0.0919,0.0876,0.0873,0.0869,0.0856,0.0851,0.091,0.091,0.091,0.091,0,0.1357,0.132,0.1297,0.1247,0.1219,0.1183,0.1152,0.1127,0.1112,0.1089,0.104,0.1003,0.0957,0.0942,0.0927,0.0884,0.0886,0.0883,0.0887,0.0866,0.0852,0.0847,0.091,0.091,0.091,0.091,0,0,0.1335,0.1273,0.1265,0.1242,0.1193,0.1164,0.1126,0.1082,0.1062,0.1025,0.0993,0.0937,0.0934,0.0907,0.0889,0.0865,0.0837,0.0865,0.0863,0.0861,0.0786,0.0789,0.0783,0.083,0.0829,0.0828,0.079,0,0.1301,0.1235,0.1212,0.1157,0.1122,0.1104,0.1071,0.1038,0.1014,0.0981,0.0955,0.0916,0.0915,0.0899,0.0875,0.0846,0.0822,0.0848,0.0798,0.0797,0.081,0.0776,0.0779,0.0745,0.0785,0.0784,0.0783,0,0.1253,0.1217,0.1159,0.1115,0.11,0.1071,0.1029,0.0998,0.0959,0.0944,0.0914,0.0897,0.0857,0.0865,0.0808,0.0826,0.0805,0.0787,0.0785,0.0779,0.0789,0.0769,0.0733,0.0728,0.0775,0.0775,0.0776,0,0.1243,0.118,0.1137,0.1118,0.1066,0.1047,0.1024,0.0986,0.0961,0.0924,0.0908,0.0866,0.0843,0.0811,0.0783,0.0791,0.0729,0.0734,0.0714,0.0715,0.0702,0.0703,0.0662,0.0688,0.0688,0.0689,0.0689,0,0.1207,0.1172,0.1132,0.1106,0.1066,0.1039,0.1,0.0976,0.0943,0.0911,0.0893,0.0863,0.0828,0.0794,0.0772,0.0728,0.0718,0.0704,0.0698,0.0705,0.0707,0.069,0.0692,0.0687,0.0687,0.0688,0.0688,0,0.1189,0.1161,0.1113,0.1068,0.1056,0.1029,0.099,0.0963,0.094,0.09,0.0889,0.0851,0.081,0.0779,0.0725,0.071,0.0664,0.0658,0.0677,0.0674,0.0656,0.0658,0.0602,0.0593,0.0627,0.0626,0.0626,0,0.1168,0.1141,0.1093,0.1071,0.1049,0.1013,0.0989,0.0961,0.0935,0.089,0.0868,0.0826,0.0791,0.0725,0.0692,0.0651,0.0644,0.0627,0.0637,0.0645,0.0643,0.0645,0.0642,0.0626,0.0625,0.0625,0.0625,0,0.1133,0.1121,0.1087,0.1047,0.1018,0.0985,0.0952,0.0935,0.0901,0.0874,0.0832,0.0804,0.075,0.0708,0.0663,0.0639,0.0626,0.0622,0.0615,0.0622,0.0634,0.0627,0.0673,0.0624,0.0624,0.0624,0.0624,0.0624,0.1113,0.1088,0.1051,0.1013,0.0986,0.0956,0.0929,0.0902,0.0867,0.0822,0.0807,0.0764,0.0725,0.0665,0.0639,0.0604,0.0605,0.0595,0.0592,0.059,0.0591,0.064,0.0596,0.0596,0.0596,0.0596,0.0596,0,0.1078,0.1053,0.1019,0.0974,0.0944,0.0936,0.0899,0.0874,0.0837,0.0803,0.0769,0.072,0.068,0.0644,0.0601,0.058,0.0573,0.057,0.0571,0.0565,0.0593,0.0603,0.0576,0.0576,0.0576,0.0576,0.0576,0.0576,0.1056,0.1014,0.0997,0.0941,0.0916,0.0875,0.0854,0.0826,0.0799,0.0746,0.0713,0.0691,0.0656,0.061,0.0572,0.0563,0.0548,0.0546,0.0535,0.0561,0.0563,0.0566,0.0575,0.0543,0.0543,0.051,0.051,0.051]}]]